�N����,����,�~����,�C��,���x,�C��,����,���ϕ���,�ő�u�ԕ���,�ő厞����,���˗�,�I�_���x,�n�����x,�ő啗���N��,DTYPE
"22/04/13","00:10",0.0,18.3,81.2,1008.8,328.4,1.3,1.8,325.6,0.00,15.1,17.2,"00:04:24",1
"22/04/13","00:20",0.0,18.5,81.8,1008.6,326.6,1.2,1.7,330.7,0.00,15.4,16.9,"00:10:08",1
"22/04/13","00:30",0.0,18.6,82.1,1008.8,325.2,0.6,1.2,315.3,0.00,15.5,17.1,"00:28:32",1
"22/04/13","00:40",0.0,18.6,82.4,1008.3,332.4,1.1,2.0,320.2,0.00,15.6,17.1,"00:30:40",1
"22/04/13","00:50",0.0,18.5,82.5,1008.6,337.1,1.3,2.1,335.9,0.00,15.5,16.9,"00:47:20",1
"22/04/13","01:00",0.0,18.2,83.0,1008.6,330.7,1.6,2.1,337.2,0.00,15.3,17.0,"00:53:52",1
"22/04/13","01:10",0.0,18.0,83.6,1008.6,330.0,1.6,2.1,335.3,0.00,15.2,17.0,"01:01:52",1
"22/04/13","01:20",0.0,17.7,84.1,1008.6,300.8,1.2,1.7,313.6,0.00,15.0,16.9,"01:18:56",1
"22/04/13","01:30",0.0,17.5,84.5,1008.3,311.7,1.7,2.2,321.2,0.00,14.9,17.0,"01:22:32",1
"22/04/13","01:40",0.0,17.5,84.8,1008.6,300.3,1.6,2.7,313.6,0.00,15.0,16.8,"01:36:48",1
"22/04/13","01:50",0.0,17.3,85.0,1008.3,303.6,1.6,2.2,308.5,0.00,14.8,16.7,"01:45:28",1
"22/04/13","02:00",0.0,17.1,85.2,1008.6,295.3,1.2,2.0,319.8,0.00,14.6,16.9,"01:55:44",1
"22/04/13","02:10",0.0,17.0,85.5,1008.6,293.0,1.3,2.0,297.3,0.00,14.6,16.8,"02:04:48",1
"22/04/13","02:20",0.0,17.0,85.9,1008.3,294.0,1.6,2.4,335.5,0.00,14.7,16.6,"02:14:48",1
"22/04/13","02:30",0.0,17.0,86.1,1008.6,288.2,1.1,1.4,300.5,0.00,14.7,16.6,"02:20:56",1
"22/04/13","02:40",0.0,17.1,86.3,1008.6,292.9,1.5,2.1,302.8,0.00,14.8,16.8,"02:34:16",1
"22/04/13","02:50",0.0,17.2,86.4,1008.6,296.4,1.8,2.6,309.8,0.00,15.0,16.6,"02:43:44",1
"22/04/13","03:00",0.0,17.2,86.4,1008.8,296.2,1.0,1.3,308.3,0.00,15.0,16.6,"02:50:40",1
"22/04/13","03:10",0.0,17.2,86.5,1008.6,292.0,1.3,2.4,303.9,0.00,15.0,16.7,"03:07:12",1
"22/04/13","03:20",0.0,17.3,86.5,1008.3,309.7,1.7,2.4,314.8,0.00,15.1,16.4,"03:19:36",1
"22/04/13","03:30",0.0,17.3,86.6,1008.6,311.2,1.6,2.5,322.1,0.00,15.1,16.6,"03:28:32",1
"22/04/13","03:40",0.0,17.2,86.6,1008.6,295.5,1.5,2.1,302.9,0.00,15.0,16.4,"03:33:52",1
"22/04/13","03:50",0.0,17.2,86.7,1008.3,310.4,1.2,1.7,319.5,0.00,15.0,16.7,"03:49:20",1
"22/04/13","04:00",0.0,17.3,86.7,1008.3,295.8,1.5,2.1,313.8,0.00,15.1,16.6,"03:54:00",1
"22/04/13","04:10",0.0,17.3,86.7,1008.3,299.5,1.5,2.0,310.7,0.00,15.1,16.4,"04:06:48",1
"22/04/13","04:20",0.0,17.1,86.8,1008.3,321.0,1.5,1.9,334.6,0.00,14.9,16.7,"04:13:04",1
"22/04/13","04:30",0.0,17.0,86.9,1008.1,304.4,1.2,1.9,323.2,0.00,14.8,16.5,"04:28:40",1
"22/04/13","04:40",0.0,17.0,87.1,1008.3,329.0,1.3,1.9,326.1,0.00,14.9,16.5,"04:34:56",1
"22/04/13","04:50",0.0,17.1,87.4,1008.3,330.4,1.8,2.2,323.1,0.00,15.0,16.4,"04:41:36",1
"22/04/13","05:00",0.0,17.1,87.6,1008.1,324.5,1.7,2.0,333.9,0.00,15.1,16.5,"04:51:20",1
"22/04/13","05:10",0.0,17.1,87.9,1008.1,312.6,1.5,2.1,323.1,0.00,15.1,16.2,"05:00:32",1
"22/04/13","05:20",0.0,17.1,88.1,1008.1,310.2,1.3,1.9,322.3,0.00,15.2,16.4,"05:17:28",1
"22/04/13","05:30",0.0,17.2,88.3,1008.6,326.4,1.5,2.1,331.5,0.00,15.3,16.2,"05:25:04",1
"22/04/13","05:40",0.0,17.3,88.6,1008.3,314.2,1.5,2.0,315.3,0.00,15.4,16.5,"05:39:12",1
"22/04/13","05:50",0.0,17.3,88.7,1008.1,326.0,1.7,2.4,320.3,0.00,15.5,16.3,"05:48:48",1
"22/04/13","06:00",0.0,17.4,88.7,1008.3,326.6,1.6,2.4,332.7,0.00,15.6,16.3,"05:51:52",1
"22/04/13","06:10",0.0,17.4,88.7,1008.6,295.2,1.1,1.6,299.8,0.00,15.6,16.4,"06:05:44",1
"22/04/13","06:20",0.0,17.5,88.7,1008.6,302.0,1.5,2.4,313.0,0.00,15.7,16.1,"06:17:44",1
"22/04/13","06:30",0.0,17.6,88.5,1008.8,302.4,1.3,1.9,309.8,0.00,15.7,16.4,"06:24:24",1
"22/04/13","06:40",0.0,17.8,88.4,1008.6,311.1,1.3,1.9,314.0,0.00,15.9,16.2,"06:31:28",1
"22/04/13","06:50",0.0,17.9,88.3,1008.6,332.6,1.2,1.7,337.7,0.01,16.0,16.5,"06:43:20",1
"22/04/13","07:00",0.0,18.0,88.1,1008.8,301.6,0.8,1.3,326.9,0.01,16.0,16.2,"06:50:16",1
"22/04/13","07:10",0.0,18.2,88.0,1008.8,281.0,0.8,1.2,276.1,0.02,16.2,16.0,"07:05:04",1
"22/04/13","07:20",0.0,18.5,87.8,1008.8,303.2,1.1,1.4,316.5,0.04,16.5,16.4,"07:16:48",1
"22/04/13","07:30",0.0,18.7,87.4,1008.8,319.8,1.2,1.7,323.0,0.04,16.6,16.2,"07:25:04",1
"22/04/13","07:40",0.0,18.9,86.8,1008.6,321.4,1.3,2.0,337.9,0.02,16.7,16.2,"07:34:08",1
"22/04/13","07:50",0.0,18.9,86.3,1009.0,329.2,1.6,2.0,334.1,0.02,16.6,16.3,"07:48:32",1
"22/04/13","08:00",0.0,19.2,86.2,1008.8,299.3,0.6,1.2,322.2,0.04,16.9,16.4,"07:50:32",1
"22/04/13","08:10",0.0,19.7,85.7,1008.6,294.1,0.6,1.6,245.5,0.14,17.3,16.2,"08:07:52",1
"22/04/13","08:20",0.0,19.9,84.5,1008.6,261.2,0.7,2.1,242.6,0.09,17.3,16.4,"08:11:12",1
"22/04/13","08:30",0.0,19.9,83.7,1008.6,249.6,0.7,1.6,179.4,0.08,17.1,16.1,"08:25:20",1
"22/04/13","08:40",0.0,20.3,82.7,1008.6,142.7,0.5,1.6,118.7,0.11,17.3,16.2,"08:39:20",1
"22/04/13","08:50",0.0,20.6,81.4,1008.8,84.7,0.5,1.4,117.2,0.12,17.3,16.3,"08:40:08",1
"22/04/13","09:00",0.0,20.9,80.9,1008.6,170.9,0.5,1.4,134.9,0.12,17.5,16.3,"08:54:32",1
"22/04/13","09:10",0.0,21.2,80.0,1008.8,247.9,0.5,1.1,250.1,0.14,17.7,16.6,"09:06:56",1
"22/04/13","09:20",0.0,21.3,79.2,1008.6,227.8,0.7,1.6,222.6,0.13,17.6,16.5,"09:16:40",1
"22/04/13","09:30",0.0,21.6,79.0,1008.6,215.6,0.5,1.6,158.1,0.16,17.8,16.4,"09:21:04",1
"22/04/13","09:40",0.0,21.9,78.3,1008.1,180.7,1.1,2.1,219.1,0.22,18.0,16.5,"09:32:56",1
"22/04/13","09:50",0.0,22.0,77.0,1008.3,186.3,1.8,2.7,191.8,0.23,17.8,16.5,"09:49:28",1
"22/04/13","10:00",0.0,22.2,76.6,1008.3,183.5,2.1,4.0,205.9,0.29,17.9,16.7,"09:55:20",1
"22/04/13","10:10",0.0,22.6,75.7,1008.3,155.6,1.6,2.9,122.7,0.28,18.1,16.6,"10:08:00",1
"22/04/13","10:20",0.0,22.9,74.8,1008.1,186.9,1.1,2.5,146.9,0.27,18.2,16.7,"10:17:36",1
"22/04/13","10:30",0.0,23.1,74.4,1008.6,169.2,1.2,3.1,109.2,0.29,18.3,16.8,"10:27:52",1
"22/04/13","10:40",0.0,23.0,74.6,1008.3,187.3,1.8,3.2,223.7,0.26,18.3,16.5,"10:32:16",1
"22/04/13","10:50",0.0,23.7,73.6,1008.1,179.0,2.1,4.1,125.3,0.42,18.7,16.6,"10:48:40",1
"22/04/13","11:00",0.0,24.5,71.2,1007.8,174.0,1.8,4.0,150.3,0.55,19.0,16.8,"10:51:20",1
"22/04/13","11:10",0.0,24.8,68.5,1007.1,138.5,1.8,3.4,112.3,0.55,18.7,17.2,"11:02:24",1
"22/04/13","11:20",0.0,24.9,69.1,1007.1,182.1,2.0,3.3,181.2,0.43,18.9,17.2,"11:17:28",1
"22/04/13","11:30",0.0,25.5,68.3,1006.7,182.0,2.1,4.2,170.6,0.59,19.3,17.2,"11:20:16",1
"22/04/13","11:40",0.0,25.7,65.4,1006.0,173.4,1.8,3.5,158.2,0.56,18.8,17.2,"11:30:40",1
"22/04/13","11:50",0.0,26.0,65.8,1006.2,161.1,1.7,3.4,197.9,0.53,19.1,17.4,"11:46:48",1
"22/04/13","12:00",0.0,25.9,64.9,1006.2,152.0,2.0,4.0,138.7,0.50,18.8,17.4,"11:59:12",1
"22/04/13","12:10",0.0,25.9,65.0,1006.0,144.2,2.1,4.3,230.0,0.53,18.9,17.7,"12:09:44",1
"22/04/13","12:20",0.0,26.1,63.6,1005.7,142.6,1.8,3.4,156.3,0.56,18.7,17.6,"12:11:28",1
"22/04/13","12:30",0.0,26.6,62.6,1005.7,199.7,1.8,3.9,205.8,0.64,18.9,17.7,"12:28:16",1
"22/04/13","12:40",0.0,26.7,62.0,1006.4,147.0,1.8,4.1,114.1,0.62,18.9,18.0,"12:36:56",1
"22/04/13","12:50",0.0,26.5,62.9,1005.7,146.4,2.7,5.2,121.7,0.48,18.9,17.8,"12:40:02",1
"22/04/13","13:00",0.0,26.3,62.8,1005.2,191.9,2.0,5.4,222.4,0.44,18.7,18.0,"12:52:00",1
"22/04/13","13:10",0.0,26.5,62.6,1004.8,150.8,2.3,4.1,104.8,0.48,18.8,18.3,"13:04:40",1
"22/04/13","13:20",0.0,26.5,62.0,1005.0,157.4,2.6,6.2,195.7,0.49,18.7,18.3,"13:10:48",1
"22/04/13","13:30",0.0,26.9,60.2,1005.0,172.7,2.2,5.5,217.0,0.53,18.6,18.4,"13:28:32",1
"22/04/13","13:40",0.0,27.5,59.3,1005.0,196.6,1.8,3.9,196.6,0.58,18.9,18.5,"13:31:36",1
"22/04/13","13:50",0.0,26.6,58.1,1005.0,138.9,2.7,5.0,115.0,0.39,17.7,18.7,"13:42:40",1
"22/04/13","14:00",0.0,27.2,57.6,1005.2,174.6,1.3,3.3,104.1,0.45,18.2,18.7,"13:58:08",1
"22/04/13","14:10",0.0,26.9,57.1,1004.8,169.1,2.5,4.4,122.8,0.43,17.7,18.7,"14:00:40",1
"22/04/13","14:20",0.0,26.9,55.4,1005.0,143.4,1.6,3.5,131.8,0.30,17.3,18.7,"14:11:20",1
"22/04/13","14:30",0.0,26.7,57.1,1004.5,295.1,0.8,2.7,167.9,0.17,17.5,18.7,"14:24:32",1
"22/04/13","14:40",0.0,26.7,56.2,1004.8,154.2,1.5,3.3,127.0,0.16,17.3,18.8,"14:36:48",1
"22/04/13","14:50",0.0,27.0,57.2,1004.3,135.7,1.2,3.4,130.1,0.21,17.9,19.0,"14:48:56",1
"22/04/13","15:00",0.0,26.8,55.6,1004.3,154.5,2.0,4.7,133.1,0.17,17.2,19.1,"14:51:44",1
"22/04/13","15:10",0.0,27.7,57.2,1004.3,182.3,1.3,2.6,111.9,0.35,18.5,19.0,"15:00:56",1
"22/04/13","15:20",0.0,27.4,54.3,1004.1,173.2,1.5,2.6,188.6,0.17,17.4,19.1,"15:18:56",1
"22/04/13","15:30",0.0,27.2,56.4,1003.8,187.1,1.7,4.0,222.9,0.19,17.8,19.2,"15:26:08",1
"22/04/13","15:40",0.0,27.7,53.8,1003.8,189.0,2.5,4.3,187.9,0.30,17.5,19.2,"15:32:32",1
"22/04/13","15:50",0.0,27.4,52.5,1003.8,196.1,2.3,4.5,204.3,0.24,16.9,19.3,"15:44:08",1
"22/04/13","16:00",0.0,26.7,55.1,1003.6,226.2,1.6,4.4,234.0,0.07,17.0,19.3,"15:51:44",1
"22/04/13","16:10",0.0,26.9,54.5,1004.3,177.7,1.7,4.1,228.5,0.12,17.0,19.3,"16:00:32",1
"22/04/13","16:20",0.0,27.0,53.3,1004.1,176.2,1.5,2.6,201.0,0.10,16.7,19.3,"16:12:16",1
"22/04/13","16:30",0.0,26.0,55.2,1004.5,329.0,2.8,7.3,354.7,0.07,16.4,19.4,"16:26:56",1
"22/04/13","16:40",0.0,23.7,62.1,1005.2,353.9,4.7,8.0,340.2,0.04,16.1,19.3,"16:30:16",1
"22/04/13","16:50",0.0,22.5,65.5,1006.0,345.2,5.7,9.6,347.2,0.02,15.8,19.4,"16:42:48",1
"22/04/13","17:00",0.0,22.2,67.1,1006.0,347.4,5.4,10.5,351.5,0.01,15.8,19.4,"16:53:20",1
"22/04/13","17:10",0.0,21.7,68.2,1006.0,349.7,5.0,8.7,337.5,0.00,15.6,19.3,"17:03:20",1
"22/04/13","17:20",0.0,21.1,69.5,1006.7,347.6,5.9,9.0,350.3,0.00,15.3,19.2,"17:16:16",1
"22/04/13","17:30",0.0,20.8,70.8,1006.9,344.0,6.0,10.8,346.6,0.00,15.3,19.1,"17:21:28",1
"22/04/13","17:40",0.0,20.5,72.2,1007.4,342.0,6.9,11.2,343.7,0.00,15.4,19.2,"17:33:36",1
"22/04/13","17:50",0.0,20.2,73.8,1007.6,342.2,5.6,10.2,326.3,0.01,15.4,19.2,"17:41:28",1
"22/04/13","18:00",0.0,20.0,74.9,1007.6,338.2,5.7,10.2,329.0,0.01,15.5,19.0,"17:51:20",1
"22/04/13","18:10",0.0,19.7,75.8,1008.3,338.9,6.2,10.8,347.8,0.00,15.4,19.1,"18:04:08",1
"22/04/13","18:20",0.0,19.5,76.4,1008.1,337.6,5.2,11.6,340.6,0.00,15.3,19.1,"18:10:16",1
"22/04/13","18:30",0.0,19.4,76.4,1008.1,337.3,5.5,8.2,347.9,0.00,15.2,18.8,"18:24:24",1
"22/04/13","18:40",0.0,19.3,76.5,1008.1,341.2,4.5,7.8,318.1,0.00,15.1,18.9,"18:33:12",1
"22/04/13","18:50",0.0,19.3,76.3,1008.3,342.0,3.6,6.0,341.5,0.00,15.1,18.8,"18:47:28",1
"22/04/13","19:00",0.0,19.2,75.7,1008.6,334.9,5.1,9.4,348.2,0.00,14.8,18.7,"18:50:56",1
"22/04/13","19:10",0.0,19.2,75.1,1008.6,327.6,5.4,8.7,322.9,0.00,14.7,18.6,"19:07:28",1
"22/04/13","19:20",0.0,19.1,75.1,1008.8,334.6,5.0,8.6,319.8,0.00,14.6,18.6,"19:15:36",1
"22/04/13","19:30",0.0,19.0,75.4,1008.8,339.2,3.7,6.0,352.5,0.00,14.6,18.5,"19:20:08",1
"22/04/13","19:40",0.0,18.8,75.7,1008.8,347.4,2.7,6.2,342.9,0.00,14.5,18.6,"19:31:52",1
"22/04/13","19:50",0.0,18.8,76.0,1009.0,349.6,1.8,5.5,340.2,0.00,14.5,18.6,"19:47:12",1
"22/04/13","20:00",0.0,18.8,76.3,1009.3,344.6,2.5,5.2,312.0,0.00,14.6,18.5,"19:57:04",1
"22/04/13","20:10",0.0,18.8,76.4,1009.3,346.7,3.1,6.2,336.3,0.00,14.6,18.4,"20:08:32",1
"22/04/13","20:20",0.0,18.7,76.6,1009.0,338.3,3.4,5.4,325.0,0.00,14.5,18.3,"20:16:32",1
"22/04/13","20:30",0.0,18.5,77.0,1009.0,346.9,2.6,5.1,344.5,0.00,14.4,18.4,"20:21:28",1
"22/04/13","20:40",0.0,18.5,77.4,1009.3,344.2,2.7,4.3,346.6,0.00,14.5,18.3,"20:30:16",1
"22/04/13","20:50",0.0,18.5,77.7,1009.0,359.0,2.6,5.0,338.9,0.00,14.6,18.4,"20:40:08",1
"22/04/13","21:00",0.0,18.5,77.8,1009.3,354.3,2.3,4.9,343.0,0.00,14.6,18.4,"20:56:32",1
"22/04/13","21:10",0.0,18.5,78.0,1009.5,345.5,3.1,5.4,343.2,0.00,14.6,18.2,"21:05:44",1
"22/04/13","21:20",0.0,18.4,78.2,1009.7,330.9,2.6,3.9,324.7,0.00,14.6,18.1,"21:10:56",1
"22/04/13","21:30",0.0,18.2,78.6,1009.7,333.5,2.5,4.0,344.9,0.00,14.5,18.1,"21:22:00",1
"22/04/13","21:40",0.0,18.1,79.2,1010.0,338.2,2.5,4.3,344.1,0.00,14.5,18.0,"21:38:48",1
"22/04/13","21:50",0.0,18.0,79.6,1010.0,336.6,3.2,5.7,331.9,0.00,14.5,17.8,"21:45:36",1
"22/04/13","22:00",0.0,18.1,79.6,1009.7,334.5,4.1,7.0,339.9,0.00,14.6,17.9,"21:53:12",1
"22/04/13","22:10",0.0,18.0,79.7,1010.4,337.7,4.2,7.0,346.1,0.00,14.5,18.0,"22:06:56",1
"22/04/13","22:20",0.0,17.9,79.8,1010.2,340.7,4.1,7.1,346.6,0.00,14.4,17.7,"22:18:56",1
"22/04/13","22:30",0.0,17.8,80.1,1010.4,337.7,3.7,7.9,338.0,0.00,14.4,17.8,"22:20:40",1
"22/04/13","22:40",0.0,17.7,80.4,1010.4,339.5,3.7,5.9,345.9,0.00,14.3,17.6,"22:32:00",1
"22/04/13","22:50",0.0,17.7,80.6,1010.2,335.6,4.4,8.1,346.9,0.00,14.4,17.8,"22:49:12",1
"22/04/13","23:00",0.0,17.6,80.8,1010.2,335.7,3.9,6.8,340.5,0.00,14.3,17.8,"22:50:08",1
"22/04/13","23:10",0.0,17.6,80.8,1010.4,327.0,3.7,5.9,339.1,0.00,14.3,17.8,"23:00:24",1
"22/04/13","23:20",0.0,17.6,80.7,1010.7,333.2,3.7,7.1,341.1,0.00,14.3,17.6,"23:19:36",1
"22/04/13","23:30",0.0,17.6,80.7,1010.7,329.8,3.1,5.4,333.2,0.00,14.3,17.8,"23:23:12",1
"22/04/13","23:40",0.0,17.5,80.7,1010.4,312.5,2.2,4.0,328.8,0.00,14.2,17.6,"23:39:36",1
"22/04/13","23:50",0.0,17.5,80.8,1010.7,327.2,2.3,3.3,338.2,0.00,14.2,17.4,"23:46:16",1
"22/04/13","24:00",0.0,17.4,81.2,1010.4,330.4,2.2,3.3,313.7,0.00,14.2,17.7,"23:57:36",1
